DELTA 1 DEB, 14472

Orbit data source: Space-Track

DELTA 1 DEB, 14472 is space debris in SSO originally from a launch on Thu, 29 Jul 1976 UTC launched from the Air Force Western Test Range (AFWTR). Debris objects in space refer to the collection of defunct objects orbiting the Earth. Examples of debris include non-operational satellites, rocket bodies, and fragments generated from explosions, collisions, or faulty payload assembly.

Loading next visibility...
Identifier
14472, 1976-077EP
Orbit
SSO
Country
Flag of USUS
Related business
Manufacturer
Unknown
Mission
Spacecraft
Bus & Motor
Unknown
Mass
Unknown
Launch date (UTC)
1976-07-29 (49 years ago)
Launch vehicle
Unknown
Launch site
Air Force Western Test Range (AFWTR)
Object type
Payload
Rocket body
Debris
Shape & HBR
Unknown shape, 0.1 m
Radar Cross Section
Small (<0.1 m²)

Expand to show TLE details & history
Last TLE update: 22 hours ago

TLE from 22 hours ago
0 DELTA 1 DEB
1 14472U 76077EP  25301.46847826 -.00000026  00000-0  20165-3 0  9997
2 14472 102.8078 281.8899 0155188 270.4025 218.0269 12.16357980905115
Epoch: 2025-10-28T11:14Z
TLE epoch observation values (Epoch: 2025-10-28T11:14:36.521Z)
Latitude
50.91141°
Longitude
-87.64592°
Altitude
1,714.692 km
Speed
6.98 km/s
True Right ascension
07h 52m 14s
True Declination
50° 45' 47"
Sunlit
Object was in daylight at epoch
Visualization orbit readout
Latitude
Unknown
Longitude
Unknown
Altitude
Unknown
Speed
Unknown
Apparent Right ascension
Unknown
Apparent Declination
Unknown
Sunlit
N/A
Visualization observer readout
Local Sidereal Time
05:14:07
Azimuth
Unknown
Elevation
Unknown
Doppler factor
Unknown
Orbital elements
Apogee altitude
1,730.004 km
Perigee altitude
1,482.192 km
Semi-major axis
7,984.235 km
Eccentricity
0.01552
Inclination
102.8078°
RAAN
281.8899°
Arg. of periapsis
270.4025°
True anomaly
216.94796°
Mean anomaly
218.0269°
Eccentric anomaly
217.48579°
Mean motion
3.04224 °/min
Orbital period
118.33 mins
BSTAR
0.00020165
Loading maneuver chart data...
Computing Atmospheric mass density...
Loading historical data...
Loading historical data...
Loading historical data...
Loading historical data...
Loading historical data...
Loading historical data...
Loading historical data...

Documentation

Showing up to 5 results
|